Retour au catalogue

FENGYUN 1C DEB

ActifSSO
NORAD 29777·DEBRIS·🇨🇳 China

Lancé May 10, 1999 depuis Taiyuan Satellite Launch Center

Loading…

Prochains Passages (prochaines 24 heures)

TLE

FraisSource: Space-Track

Époque: Sep 14, 2026, 10:15 UTC

1 29777U 99025BT  26257.42748414 -.00000044  00000-0  64856-6 0  9997
2 29777  99.2466 319.0781 0092979 183.9220 189.3686 13.92192489998779

Suivez FENGYUN 1C DEB en temps réel avec AllMySat

Download on the App Store